GOES 14

Last updated on Wed Sep 09 2026 00:02:48 GMT+0000 (Coordinated Universal Time)

1 35491U 09033A 26251.51642209 -.00000185 00000+0 00000+0 0 9995 2 35491 1.8989 81.8738 0002135 92.7183 86.5929 1.00072041 7422
UTC large
Height (km)
Speed (km/s)
/
Latitude / Longitude
Inclination (degrees)
Orbital Period (minutes)
Azimuth
Elevation
Range (km)
Doppler Factor

Next 0 passes for location: London (51.5072 / 0.1276)

No passes found over London.
GOES 14